Location: Marcé
(47.5801°N, 0.3280°W)
Time: 00:53:54
(UTC+01:00)

Tiros 1 - Pass Details

Date: 03 December 2021
Orbit: 629 x 664 km, 48.4° (Epoch: 26 January)

Event Time Altitude Azimuth Distance (km) Brightness Sun altitude
Rises 19:20:04 0° 214° (SW) 2,910 11.2 -20.9°
Reaches altitude 10° 19:22:37 10° 203° (SSW) 2,010 10.1 -21.3°
Enters shadow 19:26:16 28° 151° (SSE) 1,195 8.3 -22.0°
